When you browse on this site, cookies collect data to enhance your experience and personalize the content and advertising you see.
Visit our Privacy Policy to learn more. By continuing to use the site, you agree to this use of cookies and data.
  • In Czech Republic
  • List of Countries
  • For 7 days
  • Water Temperature
  • Satellite Maps
  • Weather Map
  • Weather Widgets
  • user-avatar
    Login

    Hourly Weather Shanghai

    Today, 26 June, Wednesday

    Time Temperature Precipitation Wind Pressure Humidity
    00:00 +24°C° 0.4 mm 3 mps 755 mmHg 81%
    01:00 +24°C° 0.4 mm 3 mps 754 mmHg 80%
    02:00 +24°C° 0 mm 2 mps 754 mmHg 79%
    03:00 +24°C° 0.9 mm 2 mps 754 mmHg 79%
    04:00 +24°C° 0.9 mm 2 mps 753 mmHg 78%
    05:00 +24°C° 0.9 mm 2 mps 753 mmHg 78%
    06:00 +24°C° 0.9 mm 2 mps 753 mmHg 77%
    07:00 +24°C° 0.9 mm 2 mps 753 mmHg 77%
    08:00 +24°C° 0.9 mm 2 mps 753 mmHg 77%
    09:00 +25°C° 0.1 mm 2 mps 753 mmHg 76%
    10:00 +25°C° 0.1 mm 2 mps 753 mmHg 76%
    11:00 +26°C° 0.1 mm 2 mps 753 mmHg 75%
    12:00 +27°C° 0 mm 2 mps 752 mmHg 73%
    13:00 +27°C° 0 mm 2 mps 752 mmHg 71%
    14:00 +28°C° 0 mm 3 mps 751 mmHg 69%
    15:00 +28°C° 0 mm 2 mps 751 mmHg 70%
    16:00 +27°C° 0 mm 2 mps 751 mmHg 71%
    17:00 +27°C° 0 mm 2 mps 750 mmHg 71%
    18:00 +27°C° 0 mm 2 mps 751 mmHg 74%
    19:00 +26°C° 0 mm 2 mps 751 mmHg 76%
    20:00 +26°C° 0 mm 2 mps 751 mmHg 78%
    21:00 +25°C° 0 mm 2 mps 751 mmHg 79%
    22:00 +25°C° 0 mm 2 mps 751 mmHg 80%
    23:00 +25°C° 0 mm 1 mps 751 mmHg 80%

    Tomorrow, 27 June, Thursday

    Time Temperature Precipitation Wind Pressure Humidity
    00:00 +25°C° 0 mm 1 mps 751 mmHg 81%
    01:00 +24°C° 0 mm 1 mps 750 mmHg 82%
    02:00 +22°C° 0 mm 0 mps 750 mmHg 83%
    03:00 +22°C° 0 mm 0 mps 750 mmHg 83%
    04:00 +22°C° 0 mm 0 mps 750 mmHg 84%
    05:00 +24°C° 0 mm 1 mps 750 mmHg 84%
    06:00 +25°C° 0 mm 1 mps 750 mmHg 79%
    07:00 +26°C° 0 mm 1 mps 750 mmHg 74%
    08:00 +28°C° 0 mm 1 mps 751 mmHg 69%
    09:00 +29°C° 0 mm 1 mps 751 mmHg 64%
    10:00 +31°C° 0 mm 1 mps 751 mmHg 59%
    11:00 +32°C° 0 mm 2 mps 751 mmHg 54%
    12:00 +32°C° 0 mm 2 mps 750 mmHg 54%
    13:00 +34°C° 0 mm 3 mps 750 mmHg 54%
    14:00 +34°C° 0 mm 3 mps 749 mmHg 54%
    15:00 +33°C° 0 mm 3 mps 749 mmHg 57%
    16:00 +33°C° 0 mm 4 mps 749 mmHg 60%
    17:00 +32°C° 0 mm 4 mps 748 mmHg 62%
    18:00 +30°C° 0 mm 4 mps 749 mmHg 67%
    19:00 +29°C° 0 mm 4 mps 749 mmHg 72%
    20:00 +28°C° 0 mm 4 mps 749 mmHg 76%
    21:00 +27°C° 0 mm 3 mps 750 mmHg 78%
    22:00 +27°C° 0 mm 3 mps 750 mmHg 81%
    23:00 +27°C° 0 mm 3 mps 750 mmHg 83%

    Day after tomorrow, 28 June, Friday

    Time Temperature Precipitation Wind Pressure Humidity
    00:00 +27°C° 0 mm 3 mps 750 mmHg 84%
    01:00 +26°C° 0 mm 3 mps 749 mmHg 86%
    02:00 +26°C° 0 mm 3 mps 749 mmHg 88%
    03:00 +26°C° 0 mm 3 mps 749 mmHg 89%
    04:00 +26°C° 0 mm 3 mps 749 mmHg 90%
    05:00 +26°C° 0 mm 3 mps 749 mmHg 90%
    06:00 +27°C° 0 mm 2 mps 749 mmHg 84%
    07:00 +29°C° 0 mm 2 mps 749 mmHg 77%
    08:00 +30°C° 0 mm 2 mps 749 mmHg 70%
    09:00 +32°C° 0 mm 2 mps 749 mmHg 63%
    10:00 +35°C° 0 mm 2 mps 749 mmHg 55%
    11:00 +37°C° 0 mm 2 mps 749 mmHg 48%
    12:00 +37°C° 0 mm 2 mps 748 mmHg 47%
    13:00 +38°C° 0 mm 2 mps 748 mmHg 45%
    14:00 +38°C° 0 mm 2 mps 747 mmHg 44%
    15:00 +38°C° 0 mm 3 mps 747 mmHg 46%
    16:00 +37°C° 0 mm 3 mps 747 mmHg 49%
    17:00 +37°C° 0 mm 3 mps 747 mmHg 51%
    18:00 +35°C° 0.1 mm 3 mps 747 mmHg 56%
    19:00 +34°C° 0.1 mm 3 mps 748 mmHg 60%
    20:00 +33°C° 0.1 mm 3 mps 748 mmHg 65%
    21:00 +31°C° 0.3 mm 3 mps 748 mmHg 68%
    22:00 +31°C° 0.3 mm 3 mps 748 mmHg 71%
    23:00 +30°C° 0.3 mm 3 mps 748 mmHg 75%

    29 June, Saturday

    Time Temperature Precipitation Wind Pressure Humidity
    00:00 +30°C° 0.1 mm 3 mps 747 mmHg 74%
    01:00 +30°C° 0.1 mm 2 mps 747 mmHg 73%
    02:00 +30°C° 0.1 mm 2 mps 746 mmHg 72%
    03:00 +30°C° 0 mm 2 mps 746 mmHg 75%
    04:00 +30°C° 0 mm 1 mps 746 mmHg 77%
    05:00 +30°C° 0 mm 1 mps 746 mmHg 80%
    06:00 +30°C° 0 mm 2 mps 746 mmHg 78%
    07:00 +31°C° 0 mm 2 mps 746 mmHg 77%
    08:00 +31°C° 0 mm 3 mps 746 mmHg 75%
    09:00 +31°C° 1 mm 3 mps 746 mmHg 74%
    10:00 +33°C° 1 mm 3 mps 747 mmHg 73%
    11:00 +33°C° 1 mm 3 mps 747 mmHg 72%
    12:00 +32°C° 1.1 mm 2 mps 747 mmHg 73%
    13:00 +31°C° 1.1 mm 2 mps 747 mmHg 75%
    14:00 +31°C° 1.1 mm 1 mps 747 mmHg 77%
    15:00 +31°C° 0.9 mm 2 mps 747 mmHg 78%
    16:00 +30°C° 0.9 mm 2 mps 747 mmHg 79%
    17:00 +30°C° 0.9 mm 3 mps 747 mmHg 80%
    18:00 +30°C° 0.3 mm 3 mps 747 mmHg 80%
    19:00 +30°C° 0.3 mm 3 mps 748 mmHg 79%
    20:00 +30°C° 0.3 mm 3 mps 748 mmHg 79%
    21:00 +30°C° 0 mm 3 mps 748 mmHg 80%
    22:00 +29°C° 0 mm 2 mps 748 mmHg 81%
    23:00 +29°C° 0 mm 2 mps 748 mmHg 82%

    30 June, Sunday

    Time Temperature Precipitation Wind Pressure Humidity
    00:00 +29°C° 0 mm 1 mps 748 mmHg 83%
    01:00 +29°C° 0 mm 1 mps 748 mmHg 83%
    02:00 +29°C° 0 mm 1 mps 748 mmHg 84%
    03:00 +29°C° 0.1 mm 1 mps 748 mmHg 84%
    04:00 +28°C° 0.1 mm 1 mps 748 mmHg 84%
    05:00 +28°C° 0.1 mm 1 mps 748 mmHg 84%
    06:00 +29°C° 0 mm 1 mps 748 mmHg 79%
    07:00 +30°C° 0 mm 1 mps 748 mmHg 74%
    08:00 +31°C° 0 mm 1 mps 749 mmHg 69%
    09:00 +33°C° 0 mm 1 mps 749 mmHg 64%
    10:00 +35°C° 0 mm 2 mps 749 mmHg 58%
    11:00 +36°C° 0 mm 2 mps 749 mmHg 53%
    12:00 +36°C° 0 mm 2 mps 749 mmHg 56%
    13:00 +35°C° 0 mm 3 mps 748 mmHg 59%
    14:00 +34°C° 0 mm 3 mps 748 mmHg 62%
    15:00 +34°C° 0 mm 3 mps 748 mmHg 66%
    16:00 +33°C° 0 mm 3 mps 748 mmHg 70%
    17:00 +31°C° 0 mm 3 mps 748 mmHg 74%
    18:00 +31°C° 0 mm 3 mps 748 mmHg 74%
    19:00 +31°C° 0 mm 3 mps 749 mmHg 75%
    20:00 +30°C° 0 mm 3 mps 749 mmHg 76%
    21:00 +30°C° 0 mm 3 mps 749 mmHg 76%
    22:00 +30°C° 0 mm 3 mps 749 mmHg 75%
    23:00 +29°C° 0 mm 3 mps 750 mmHg 75%

    1 July, Monday

    Time Temperature Precipitation Wind Pressure Humidity
    00:00 +29°C° 0 mm 3 mps 749 mmHg 76%
    01:00 +29°C° 0 mm 3 mps 749 mmHg 76%
    02:00 +29°C° 0 mm 3 mps 749 mmHg 77%
    03:00 +28°C° 0 mm 2 mps 749 mmHg 79%
    04:00 +28°C° 0 mm 2 mps 749 mmHg 81%
    05:00 +28°C° 0 mm 2 mps 749 mmHg 82%
    06:00 +29°C° 0 mm 2 mps 750 mmHg 76%
    07:00 +30°C° 0 mm 2 mps 750 mmHg 71%
    08:00 +31°C° 0 mm 2 mps 751 mmHg 65%
    09:00 +32°C° 0 mm 2 mps 751 mmHg 55%
    10:00 +35°C° 0 mm 2 mps 751 mmHg 46%
    11:00 +36°C° 0 mm 2 mps 752 mmHg 36%
    12:00 +37°C° 0 mm 3 mps 751 mmHg 35%
    13:00 +37°C° 0 mm 3 mps 751 mmHg 34%
    14:00 +38°C° 0 mm 3 mps 751 mmHg 33%
    15:00 +36°C° 0 mm 3 mps 751 mmHg 39%
    16:00 +35°C° 0 mm 3 mps 751 mmHg 45%
    17:00 +33°C° 0 mm 3 mps 751 mmHg 51%
    18:00 +31°C° 0 mm 2 mps 752 mmHg 52%
    19:00 +31°C° 0 mm 2 mps 752 mmHg 52%
    20:00 +30°C° 0 mm 2 mps 752 mmHg 53%
    21:00 +29°C° 0 mm 2 mps 753 mmHg 54%
    22:00 +29°C° 0 mm 1 mps 753 mmHg 55%
    23:00 +29°C° 0 mm 1 mps 753 mmHg 55%
    Show more